Location: Newark
(30.0333°N, 31.2167°E)
Time: 02:06:04
(UTC+00:00)

Tiros 1 despin weight - Pass Details

Date: 21 January 2020
Orbit: 594 x 642 km, 48.2° (Epoch: 19 February)

Event Time Altitude Azimuth Distance (km) Brightness Sun altitude
Rises 11:58:20 0° 287° (WNW) 2,882 ? 33.2°
Reaches altitude 10° 12:02:08 10° 319° (NW) 1,991 ? 32.8°
Maximum altitude 12:03:53 12° 342° (NNW) 1,870 ? 32.6°
Drops below altitude 10° 12:05:38 10° 4° (N) 2,004 ? 32.4°
Sets 12:09:30 0° 36° (NE) 2,924 ? 31.9°
